Flag for Spain Weather past 2 weeks in Barcelona, Barcelona, Spain

Now
57 °F

Passing clouds.


Feels Like: 55 °F
Forecast: 57 / 72 °F
Wind: 10 mph from North

Location: Barcelona Airport

Current Time: May 23, 2015 at 7:22:10 AM

Latest Report: May 23, 2015 at 7:00 AM


Visibility: N/A

Pressure: 30.04 "Hg

Humidity: 63%

Dew point: 45 °F

Location of BarcelonaLocation

Historic Weather in Barcelona — Graph

°F

Barcelona temperature yesterday

Maximum temperature yesterday: 68 °F (at 1:00 PM)
Minimum temperature yesterday: 55 °F (at 6:30 AM)
Average temperature yesterday: 63 °F

Past Weeks' High & Low Weather Summary

 TemperatureHumidityPressure
High81 °F (May 15, 3:30 PM)100% (May 14, 1:00 AM)30.30 "Hg (May 14, 1:00 AM)
Low52 °F (May 20, 9:00 AM)18% (May 15, 4:30 PM)29.74 "Hg (May 14, 5:30 PM)
Average66 °F71%30.09 "Hg
* Reported May 8 6:00 AM — May 23 6:00 AM, Barcelona, Weather by CustomWeather, © 2015

Note: Actual official high and low records may vary slightly from our data, if they occured in-between our weather recording intervals... More about our weather records

Advertising

Barcelona weather history for previous 24 hours

 ConditionsComfort  
Time TempWeatherWind HumidityBarometerVisibility
6:00 AM
Sat, May 23
55 °FPassing clouds.12 mph72%30.04 "HgN/A
5:30 AM55 °FClear.13 mph77%30.04 "Hg10 mi
5:00 AM57 °FClear.8 mph72%30.04 "Hg10 mi
4:30 AM57 °FClear.8 mph72%30.04 "Hg10 mi
4:00 AM57 °FClear.8 mph72%30.04 "Hg10 mi
3:30 AM57 °FPassing clouds.3 mph72%30.07 "HgN/A
3:00 AM57 °FPassing clouds.6 mph77%30.07 "HgN/A
2:30 AM59 °FPassing clouds.3 mph72%30.07 "HgN/A
2:00 AM59 °FPassing clouds.6 mph72%30.09 "HgN/A
1:30 AM59 °FPassing clouds.6 mph72%30.09 "HgN/A
1:00 AM61 °FPassing clouds.6 mph68%30.09 "HgN/A
12:30 AM61 °FPassing clouds.6 mph72%30.12 "HgN/A
12:00 AM61 °FPassing clouds.7 mph72%30.09 "HgN/A
11:00 PM
Fri, May 22
61 °FPassing clouds.8 mph72%30.09 "HgN/A
10:30 PM63 °FPassing clouds.9 mph68%30.09 "HgN/A
10:00 PM63 °FPassing clouds.8 mph68%30.09 "HgN/A
9:30 PM64 °FPassing clouds.8 mph64%30.09 "HgN/A
9:00 PM64 °FPassing clouds.7 mph60%30.09 "HgN/A
8:30 PM64 °FPassing clouds.7 mph64%30.09 "HgN/A
8:00 PM66 °FPassing clouds.7 mph60%30.09 "HgN/A
7:30 PM66 °FPassing clouds.7 mph60%30.07 "HgN/A
7:00 PM66 °FPassing clouds.10 mph56%30.07 "HgN/A
6:30 PM68 °FPassing clouds.12 mph53%30.07 "HgN/A
6:00 PM68 °FPassing clouds.13 mph53%30.07 "HgN/A
5:30 PM66 °FPassing clouds.15 mph60%30.07 "HgN/A
5:00 PM66 °FPassing clouds.17 mph64%30.09 "HgN/A
4:30 PM68 °FPassing clouds.16 mph60%30.09 "HgN/A
4:00 PM68 °FPassing clouds.17 mph56%30.09 "HgN/A
3:30 PM68 °FPassing clouds.17 mph56%30.09 "HgN/A
3:00 PM66 °FPassing clouds.16 mph64%30.12 "HgN/A
2:30 PM68 °FPassing clouds.14 mph56%30.12 "HgN/A
2:00 PM66 °FPassing clouds.15 mph60%30.15 "HgN/A
1:30 PM68 °FPassing clouds.15 mph53%30.15 "HgN/A
1:00 PM68 °FPassing clouds.14 mph46%30.15 "HgN/A
12:30 PM66 °FPassing clouds.13 mph49%30.15 "HgN/A
12:00 PM66 °FPassing clouds.12 mph46%30.18 "HgN/A
11:30 AM66 °FPassing clouds.5 mph43%30.18 "HgN/A
11:00 AM66 °FPassing clouds.7 mph32%30.18 "HgN/A
10:30 AM64 °FPassing clouds.8 mph46%30.18 "HgN/A
10:00 AM63 °FPassing clouds.12 mph52%30.18 "HgN/A
9:30 AM61 °FPassing clouds.13 mph55%30.18 "HgN/A
9:00 AM59 °FPassing clouds.13 mph59%30.18 "HgN/A
8:30 AM59 °FPassing clouds.10 mph68%30.18 "HgN/A
8:00 AM57 °FPassing clouds.9 mph72%30.18 "HgN/A
7:30 AM55 °FPassing clouds.8 mph77%30.18 "HgN/A
7:00 AM55 °FPassing clouds.12 mph72%30.18 "HgN/A
Weather by CustomWeather, © 2015

See weather overviewHow to use our weather pages